Home   Weather   Sunderland   Past weeks

Flag for United Kingdom Past Weather in Sunderland, England, United Kingdom — Yesterday and Last 2 Weeks

Now
48 °F

Light rain. Partly sunny.


Feels Like: 43 °F
Forecast: 40 / 48 °F
Wind: 12 mph from Northwest

Location: Newcastle

Current Time: Apr 27, 2017 at 12:22:44 pm

Latest Report: Apr 27, 2017 at 11:50 am


Visibility: N/A

Pressure: 29.98 "Hg

Humidity: 76%

Dew Point: 41 °F

Location of SunderlandLocation

Past Weather in Sunderland — Graph

°F

Sunderland Temperature Yesterday

Maximum temperature yesterday: 45 °F (at 12:50 pm)
Minimum temperature yesterday: 34 °F (at 1:20 am)
Average temperature yesterday: 39 °F

High & Low Weather Summary for the Past Weeks

 TemperatureHumidityPressure
High61 °F (Apr 20, 1:50 pm)100% (Apr 14, 2:20 am)30.57 "Hg (Apr 14, 2:20 am)
Low30 °F (Apr 18, 3:20 am)37% (Apr 24, 2:50 pm)29.80 "Hg (Apr 14, 4:20 pm)
Average44 °F79%30.16 "Hg
* Reported Apr 12 10:20 am — Apr 27 10:50 am, Sunderland, Weather by CustomWeather, © 2017

Note: Actual official high and low records may vary slightly from our data, if they occured in-between our weather recording intervals... More about our weather records

Advertising

Sunderland Weather History for the Previous 24 Hours

Scroll right to see more
 ConditionsComfort  
Time TempWeatherWind HumidityBarometerVisibility
10:50 am
Thu, Apr 27
48 °FScattered clouds.12 mph76%29.98 "HgN/A
10:20 am48 °FPassing clouds.13 mph76%29.98 "HgN/A
9:50 am46 °FPassing clouds.10 mph87%29.98 "HgN/A
9:20 am45 °FPassing clouds.10 mph93%29.98 "HgN/A
8:50 am45 °FPassing clouds.10 mph87%29.98 "HgN/A
7:20 am41 °FPassing clouds.13 mph100%29.98 "HgN/A
6:50 am41 °FScattered clouds.12 mph93%29.98 "HgN/A
6:20 am41 °FPartly sunny.13 mph93%30.01 "HgN/A
5:50 am41 °FPartly sunny.14 mph93%30.01 "HgN/A
5:20 am39 °FLight rain. Passing clouds.12 mph100%30.01 "HgN/A
4:50 am39 °FLight rain. Passing clouds.13 mph93%30.01 "HgN/A
4:20 am39 °FLight rain. Passing clouds.12 mph93%30.01 "HgN/A
3:50 am39 °FClear.10 mph93%30.04 "Hg10 mi
3:20 am39 °FClear.9 mph87%30.04 "Hg10 mi
2:50 am41 °FClear.10 mph81%30.04 "Hg10 mi
2:20 am39 °FClear.9 mph81%30.04 "Hg10 mi
1:50 am39 °FClear.9 mph81%30.07 "Hg10 mi
1:20 am37 °FClear.9 mph81%30.07 "Hg10 mi
12:50 am37 °FClear.8 mph75%30.07 "Hg10 mi
12:20 am39 °FClear.5 mph75%30.09 "Hg10 mi
11:50 pm
Wed, Apr 26
39 °FClear.6 mph75%30.09 "Hg10 mi
11:20 pm39 °FClear.5 mph81%30.09 "Hg10 mi
10:50 pm39 °FClear.3 mph81%30.09 "Hg10 mi
10:20 pm39 °FClear.2 mph87%30.09 "Hg10 mi
9:50 pm39 °FClear.2 mph81%30.12 "Hg10 mi
8:50 pm39 °FPassing clouds.1 mph81%30.12 "HgN/A
8:20 pm41 °FPartly sunny.1 mph76%30.12 "HgN/A
7:50 pm41 °FPartly sunny.1 mph76%30.09 "HgN/A
7:20 pm43 °FPartly sunny.3 mph66%30.09 "HgN/A
6:50 pm43 °FPartly sunny.3 mph66%30.09 "HgN/A
6:20 pm43 °FScattered clouds.6 mph66%30.09 "HgN/A
5:50 pm43 °FPassing clouds.7 mph61%30.09 "HgN/A
5:20 pm43 °FPassing clouds.9 mph61%30.09 "HgN/A
4:50 pm45 °FScattered clouds.10 mph61%30.12 "HgN/A
4:20 pm43 °FScattered clouds.12 mph66%30.12 "HgN/A
3:50 pm45 °FScattered clouds.10 mph61%30.12 "HgN/A
3:20 pm45 °FScattered clouds.10 mph61%30.12 "HgN/A
2:50 pm45 °FScattered clouds.13 mph61%30.12 "HgN/A
2:20 pm45 °FPassing clouds.12 mph57%30.12 "HgN/A
1:50 pm45 °FScattered showers. Scattered clouds.14 mph61%30.12 "HgN/A
1:20 pm45 °FScattered showers. Scattered clouds.12 mph57%30.12 "HgN/A
12:50 pm45 °FScattered showers. Passing clouds.12 mph61%30.12 "HgN/A
12:20 pm43 °FSprinkles. Passing clouds.15 mph61%30.12 "HgN/A
Weather by CustomWeather, © 2017

See weather overviewHow to use our weather pages